Retour au catalogue

STARLINK-11512

ActifCommunicationsVLEO
NORAD 62517·PAYLOAD·🇺🇸 United States

Lancé Jan 8, 2025 depuis Cape Canaveral Space Force Station

Loading…

Prochains Passages (prochaines 24 heures)

TLE

FraisSource: CelesTrak SupGP

Époque: Sep 14, 2026, 21:25 UTC

1 62517C 25004G   26257.89284722  .00027325  00000+0  21215-3 0  2575
2 62517  43.0008   9.8705 0001675 275.6193 306.2531 15.70833241    14

Suivez STARLINK-11512 en temps réel avec AllMySat

Download on the App Store